Regional Weather Roundup
Issued by NWS

Home | Current Version | Previous Version | Graphics & Text | Print | Product List | Glossary On
Versions: 1 2 3 4 5 6 7 8 9 10 11 12 13 14 15 16 17 18 19 20 21 22 23 24 25 26 27 28 29 30 31 32 33 34 35 36 37 38 39 40 41 42 43 44 45 46 47 48 49 50
000
ASUS43 KLOT 250006
RWRIL

ILLINOIS REGIONAL WEATHER ROUNDUP
NATIONAL WEATHER SERVICE CHICAGO/ROMEOVILLE IL
700 PM CDT THU JUL 24 2014

NOTE: "FAIR" INDICATES FEW OR NO CLOUDS BELOW 12,000 FEET WITH NO
SIGNIFICANT WEATHER AND/OR OBSTRUCTIONS TO VISIBILITY.

* THESE STATIONS ARE NOT UNDER NWS QUALITY CONTROL. THEY ALSO MAY NOT
  REPORT WEATHER SUCH AS PRECIPITATION OR FOG.

ILZ001-002-007-009-015-016-024-250100-
NORTHWEST ILLINOIS

CITY           SKY/WX    TMP DP  RH WIND       PRES   REMARKS
MOLINE         PTSUNNY   73  59  61 S3        30.07S
6HR MIN TEMP:  73; 6HR MAX TEMP:  79;

STERLING*      PTSUNNY   72  59  64 CALM      30.09R
SAVANNA*       PTSUNNY   75  53  47 S3        30.07S
$$

ILZ003-004-008-010-011-017-018-250100-
NORTH CENTRAL ILLINOIS

CITY           SKY/WX    TMP DP  RH WIND       PRES   REMARKS
ROCKFORD       PTSUNNY   73  54  51 SW6       30.09S
6HR MIN TEMP:  73; 6HR MAX TEMP:  78;

FREEPORT*      MOSUNNY   71  58  64 SW3       30.11R
ROCHELLE*      MOSUNNY   73  53  49 CALM      30.09S
DE KALB*       PTSUNNY   70  54  56 CALM      30.09S
PERU*          SUNNY     73  55  52 NE5       30.09R
$$

ILZ005-006-012>014-019>023-250100-
NORTHEAST ILLINOIS

CITY           SKY/WX    TMP DP  RH WIND       PRES   REMARKS
CHICAGO-OHARE  MOSUNNY   71  43  36 NE7       30.09S
6HR MIN TEMP:  71; 6HR MAX TEMP:  75;

CHICAGO-MIDWAY MOSUNNY   72  46  39 E8        30.09S
6HR MIN TEMP:  72; 6HR MAX TEMP:  75;

AURORA         SUNNY     72  51  47 CALM      30.09R
6HR MIN TEMP:  72; 6HR MAX TEMP:  77;

LANSING*       SUNNY     68  48  48 E5        30.09F
JOLIET*        SUNNY     71  46  41 N5        30.09R
WAUKEGAN       SUNNY     65  44  46 SE5       30.09S
6HR MIN TEMP:  65; 6HR MAX TEMP:  70;

DUPAGE AIRPORT SUNNY     71  48  43 SE7       30.08R
6HR MIN TEMP:  71; 6HR MAX TEMP:  77;

KANKAKEE*      SUNNY     71  54  55 CALM      30.08S
WHEELING       SUNNY     70  44  39 NE6       30.11R
6HR MIN TEMP:  70; 6HR MAX TEMP:  74;

MORRIS*        SUNNY     73  53  50 CALM      30.08R
ROMEOVILLE*    SUNNY     70  45  41 E9        30.09R
$$

LMZ740>746-250100-
SOUTHERN LAKE MICHIGAN

STATION/POSITION SKY/WX   TEMP    WIND        PRES    VSBY  WAVE
                          AIR SEA DIR/SP/G                  HT/PER
                          (F)     (DEG/KT/KT) (MB)    (MI)  (FT/S)
SOUTHERN BUOY              63 62  310/  2/  4 1019.0F
WAUKEGAN HARBOR            66     140/  4/  5   N/A
HARRISON CRIB              65      30/  5/  6   N/A
CALUMET HARBOR             66      20/  5/  7 1017.9S
BURNS HARBOR               66      30/  8/  9 1020.0S
MICHIGAN CITY              65      10/  8/ 10   N/A
MICHIGAN CITY 6N           66 69   30/  6/ 10   N/A           2/ 2
ST. JOSEPH                 58 51   50/  2/  4   N/A           1/ 4
$$

ILZ025>027-034>036-040-047-049-050-058-095>099-250100-
WEST-CENTRAL ILLINOIS

CITY           SKY/WX    TMP DP  RH WIND       PRES   REMARKS
QUINCY         MOSUNNY   77  54  44 E5        30.08S
GALESBURG*     PTSUNNY   75  58  55 CALM      30.09S
MACOMB*        MOSUNNY   75  56  53 CALM      30.10F
JACKSONVILLE*  SUNNY     77  56  48 NE3       30.10R
PITTSFIELD*    SUNNY     77  56  49 E3        30.10R
$$

ILZ028>032-037-038-041>044-048-051>054-059>061-250100-
CENTRAL ILLINOIS

CITY           SKY/WX    TMP DP  RH WIND       PRES   REMARKS
PONTIAC        SUNNY     75  57  53 CALM      30.07F
DECATUR        SUNNY     75  56  51 CALM      30.07S
PEORIA         MOSUNNY   76  54  46 NE3       30.08R
6HR MIN TEMP:  76; 6HR MAX TEMP:  81;

LACON*         SUNNY     73  54  50 CALM      30.07S
LINCOLN*       SUNNY     75  56  52 CALM      30.05R
SPRINGFIELD    SUNNY     77  56  48 NE5       30.08S
6HR MIN TEMP:  77; 6HR MAX TEMP:  81;

TAYLORVILLE    SUNNY     72  55  56 N6        30.07S
$$

ILZ033-039-045-046-055>057-062-063-250100-
EAST-CENTRAL ILLINOIS

CITY           SKY/WX    TMP DP  RH WIND       PRES   REMARKS
CHAMPAIGN      SUNNY     74  56  53 NE7       30.07F
DANVILLE*      SUNNY     71  57  60 NE3       30.04F
RANTOUL*       SUNNY     76  52  42 E5        30.08S
MATTOON        SUNNY     74  55  51 NE6       30.06S
PARIS*         SUNNY     74  59  58 CALM      30.07S
$$

ILZ079-100>102-250100-
SOUTHWEST ILLINOIS

CITY           SKY/WX    TMP DP  RH WIND       PRES   REMARKS
ALTON          SUNNY     77  54  44 N6        30.06S
BELLEVILLE     SUNNY     79  58  48 NE5       30.04S HX  80
CAHOKIA*       MOSUNNY   80  55  42 E7        30.05S HX  80
SPARTA*        SUNNY     75  55  50 N3        30.06R
$$

ILZ064>066-069>071-074>076-080>082-084>086-088>090-092>094-250100-
SOUTH-CENTRAL ILLINOIS

CITY           SKY/WX    TMP DP  RH WIND       PRES   REMARKS
CARBONDALE     SUNNY     77  58  51 NE3       30.03F
6HR MIN TEMP:  75; 6HR MAX TEMP:  81;

CAIRO*         MOSUNNY   79  59  51 NE7       30.02S HX  80
EFFINGHAM*     SUNNY     76  53  44 CALM      30.05F
MARION         SUNNY     79  59  50 NE6       30.04F HX  80
MT. VERNON     SUNNY     75  57  53 NE7       30.05S
CENTRALIA*     SUNNY     83  53  34 CALM      30.05S HX  82
SALEM*         SUNNY     78  57  47 NE5       30.06R
METROPOLIS*    MOSUNNY   77  54  45 NE3       30.02S
$$

ILZ067-068-072-073-078-083-087-091-250100-
SOUTHEAST ILLINOIS

CITY           SKY/WX    TMP DP  RH WIND       PRES   REMARKS
LAWRENCEVILLE  MOSUNNY   77  58  51 NE7       30.05R
FLORA*         SUNNY     76  56  50 NE5       30.05S
FAIRFIELD*     SUNNY     75  63  64 NE3       30.04S
HARRISBURG*    SUNNY     75  59  57 N5        30.05S
ROBINSON*      SUNNY     77  60  54 N5        30.06S
CARMI*         SUNNY     77  63  61 N3        30.04R
$$

ABBREVIATIONS USED IN REMARKS
   TC - TEMPERATURE IN CELSIUS
  WCI - WIND CHILL INDEX
   HX - HEAT INDEX
  VSB - VISIBILITY
$$




USA.gov is the U.S. government's official web portal to all federal, state and local government web resources and services.